This is the latest recevied weather packets stored in our database for station/object W5GBS-9. If no packets are shown the sender has not sent any weather packets the latest 10 day(s).
| Time | Temp. | Humidity | Pressure | Rain* | Wind** | Luminosity | Snow |
|---|---|---|---|---|---|---|---|
| 1787817739 | 27.78° C | 100% | 1013.1 hPa | 0 mm | - | - | - |
| 1787817018 | 27.78° C | 100% | 1013 hPa | 0 mm | - | - | - |
| 1787816297 | 28.33° C | 100% | 1013.3 hPa | 0 mm | - | - | - |
| 1787815576 | 28.33° C | 100% | 1013.3 hPa | 0 mm | - | - | - |
| 1787814856 | 28.33° C | 100% | 1013.4 hPa | 0 mm | - | - | - |
| 1787814135 | 28.33° C | 100% | 1013.5 hPa | 0 mm | - | - | - |
| 1787813414 | 28.33° C | 100% | 1013.4 hPa | 0 mm | - | - | - |
| 1787812693 | 28.89° C | 100% | 1013.4 hPa | 0 mm | - | - | - |
| 1787811974 | 28.89° C | 100% | 1013.4 hPa | 0 mm | - | - | - |
| 1787811252 | 28.89° C | 100% | 1013.4 hPa | 0 mm | - | - | - |
| 1787810532 | 28.89° C | 100% | 1013.5 hPa | 0 mm | - | - | - |
| 1787809811 | 29.44° C | 100% | 1013.4 hPa | 0 mm | - | - | - |
| 1787809091 | 29.44° C | 100% | 1013.3 hPa | 0 mm | - | - | - |
| 1787808370 | 30° C | 100% | 1013.4 hPa | 0 mm | - | - | - |
| 1787806928 | 30° C | 100% | 1013.1 hPa | 0 mm | - | - | - |
| 1787806207 | 30° C | 100% | 1013.3 hPa | 0 mm | - | - | - |
| 1787805486 | 30.56° C | 100% | 1013.4 hPa | 0 mm | - | - | - |
| 1787804046 | 30.56° C | 100% | 1013.1 hPa | 0 mm | - | - | - |
| 1787802604 | 31.11° C | 100% | 1012.9 hPa | 0 mm | - | - | - |
| 1787801884 | 31.11° C | 100% | 1012.8 hPa | 0 mm | - | - | - |
| 1787801162 | 31.11° C | 100% | 1012.7 hPa | 0 mm | - | - | - |
| 1787800442 | 31.67° C | 100% | 1012.7 hPa | 0 mm | - | - | - |
| 1787799722 | 31.67° C | 100% | 1012.7 hPa | 0 mm | - | - | - |
| 1787797559 | 32.78° C | 100% | 1012.1 hPa | 0 mm | - | - | - |
| 1787796118 | 33.33° C | 100% | 1012.1 hPa | 0 mm | - | - | - |
* Rain latest hour (hover to see other rain measurements)
** Current wind speed in m/s (hover to see current wind gust speed)